Location: Bouillancy
(49.1149°N, 2.9308°E)
Time: 08:38:05
(UTC+00:00)

Cosmos 2266 Rocket - Pass Details

Date: 30 September 2020
Orbit: 934 x 1008 km, 82.9° (Epoch: 29 October)

Event Time Altitude Azimuth Distance (km) Brightness Sun altitude
Rises 20:31:20 0° 347° (NNW) 3,604 7.6 -29.4°
Reaches altitude 10° 20:33:51 10° 344° (NNW) 2,656 6.9 -29.8°
Maximum altitude 20:39:44 57° 267° (W) 1,104 4.4 -30.5°
Enters shadow 20:40:53 49° 228° (SW) 1,201 4.4 -30.7°
